Wind_Speed
13 13 13 13 12 12 12 13 12 12 12 13 13 14 13 13 13 13 13 12 12 12 11 11 11 11 10 10 9 9 9 8 8 8 7 7 6 6 6 5 5 5 4
14 15 14 14 14 13 13 14 14 14 14 14 14 15 15 15 14 14 14 14 14 13 13 12 12 11 11 11 11 10 10 10 9 9 8 7 7 7 6 6 6 5 5
16 16 15 15 15 15 15 15 15 15 15 15 16 16 16 16 15 15 15 15 15 14 14 14 13 13 12 12 12 11 11 10 10 10 9 9 8 8 7 7 6 6 6
17 16 16 16 16 16 16 16 16 16 16 17 17 17 17 17 17 17 16 16 15 15 14 14 14 14 14 13 13 12 12 12 11 11 11 10 10 9 9 8 8 7 7
18 18 18 17 17 17 17 17 17 17 17 17 17 17 17 18 18 18 18 17 17 17 16 15 15 15 15 14 14 14 14 13 13 13 12 12 12 11 11 10 10 9 9
19 19 19 19 19 18 18 18 18 18 18 18 18 18 18 18 18 18 18 18 18 18 17 17 17 16 16 16 15 15 15 15 15 14 14 14 13 13 12 12 12 11 11
20 20 20 20 20 20 19 19 19 19 19 19 19 19 19 19 19 19 19 19 19 19 19 18 18 17 17 17 16 16 16 16 16 16 15 15 15 15 14 14 14 13 13
22 22 22 22 22 21 21 20 21 20 20 20 20 20 20 20 20 20 20 20 20 20 20 19 19 19 18 18 18 17 17 17 17 17 17 17 16 16 16 16 16 15 15
22 22 23 23 23 23 23 22 22 21 21 21 21 21 21 21 21 21 21 21 21 21 20 21 20 20 19 19 19 18 18 18 18 18 18 18 17 17 17 17 17 17 17
23 23 24 24 25 24 24 24 23 23 23 22 22 22 22 22 22 22 22 22 21 21 22 22 22 21 21 20 20 20 19 19 19 19 19 19 19 19 18 18 18 18 19
24 24 25 25 25 25 25 25 25 25 24 24 23 23 23 23 23 23 23 23 23 23 22 23 23 22 22 22 22 21 21 20 21 21 21 21 21 21 20 20 20 20 20
25 26 26 26 26 26 26 26 26 25 25 25 25 24 24 24 24 24 24 24 24 24 24 24 23 23 23 23 22 22 22 22 22 22 22 22 22 22 22 22 21 21 22
26 27 27 27 27 27 27 26 26 26 26 26 26 26 26 26 26 26 26 25 25 25 25 25 24 24 24 23 23 23 23 23 23 23 23 23 23 23 23 23 23 23 23
27 27 28 28 28 28 27 27 27 27 27 27 27 27 27 27 27 27 27 26 26 25 25 25 25 25 24 24 24 24 24 24 25 25 24 24 24 24 25 25 25 25 25
29 29 29 29 29 29 29 28 28 28 28 28 28 28 28 28 27 27 27 26 26 26 26 26 26 26 27 26 25 24 25 25 25 26 26 26 26 26 26 26 27 27 27
30 31 31 31 31 31 30 30 30 29 29 29 29 29 29 29 29 28 28 27 28 28 27 27 28 28 28 28 27 26 25 25 26 27 27 27 27 28 28 27 27 27 28
32 33 33 33 33 32 32 32 31 31 31 30 29 29 30 30 30 30 29 28 29 29 29 28 28 29 29 29 29 28 27 26 26 26 27 28 28 29 29 29 29 29 29
33 34 34 34 34 34 34 34 34 33 33 32 32 31 31 31 31 31 30 29 29 29 29 29 29 29 30 30 31 31 30 29 28 26 27 28 28 29 30 30 31 31 31
35 35 35 36 36 36 36 35 35 35 34 34 34 33 33 32 32 32 32 31 30 30 30 30 30 30 31 31 31 31 31 30 30 28 28 29 29 29 30 31 32 32 33
36 36 37 37 37 37 37 37 37 36 36 35 35 35 35 34 34 33 33 32 32 32 31 31 31 31 31 31 32 32 32 32 32 31 30 30 30 30 30 31 32 33 33
37 38 38 38 38 38 38 38 37 37 37 37 37 36 36 36 35 35 34 34 34 33 33 33 32 32 32 33 33 33 33 33 33 32 31 31 31 31 32 32 33 33 34
38 39 39 39 40 40 40 39 39 39 38 38 38 38 37 37 37 36 36 36 35 35 34 34 34 33 33 34 34 34 33 33 34 33 33 33 33 33 34 34 34 34 34
38 39 39 39 40 41 41 41 41 41 40 40 39 39 39 38 38 38 37 37 37 37 36 35 35 34 34 35 35 35 34 33 33 34 34 34 34 34 35 35 36 35 36
39 40 40 40 40 41 42 42 42 42 42 41 41 41 41 40 39 38 38 38 38 38 37 37 36 35 35 35 35 36 36 35 35 34 34 35 35 35 36 36 36 36 37
40 40 40 41 41 41 42 43 43 43 43 43 43 42 42 42 41 40 40 40 40 40 39 38 38 37 37 36 36 36 36 36 35 35 35 36 36 36 37 37 37 38 38
41 41 41 41 41 42 42 43 44 44 44 44 44 44 43 43 43 42 42 42 41 41 41 40 39 39 39 38 38 37 37 37 36 36 36 37 37 38 38 38 38 39 40
Wind_Direction
264 263 261 261 260 259 258 258 259 258 258 256 255 253 251 251 251 250 249 247 246 246 246 247 246 243 243 242 240 238 236 235 234 231 227 224 218 214 214 213 212 213 214
262 261 260 260 259 258 258 258 259 257 256 256 254 252 251 250 250 249 248 248 247 247 247 247 248 246 245 244 242 240 239 236 235 233 230 228 224 221 223 223 223 225 226
260 259 259 260 259 259 259 258 258 257 256 255 253 251 251 250 249 249 248 249 249 249 248 247 248 247 246 244 243 242 239 237 235 233 232 231 231 230 228 228 227 228 230
260 259 258 259 260 260 259 258 257 256 256 254 252 252 251 250 249 249 248 248 249 250 250 248 248 248 247 245 243 242 241 239 238 236 234 233 234 236 235 233 234 234 235
260 259 259 260 260 260 260 258 257 256 255 253 252 252 251 250 249 248 248 248 249 249 251 251 251 250 248 247 245 244 243 241 241 239 238 238 240 242 242 239 239 240 240
261 259 259 259 259 259 260 260 258 256 254 252 251 251 251 249 248 248 248 248 248 249 250 252 251 249 248 247 246 246 245 244 243 242 241 242 243 245 245 245 245 245 244
260 259 259 259 259 258 258 258 259 257 254 252 251 251 250 249 249 249 248 249 249 250 250 251 250 249 249 248 248 247 247 247 245 245 244 244 244 245 247 248 248 247 248
260 259 259 258 258 258 258 257 257 256 254 252 251 250 249 249 250 249 248 250 250 250 250 250 249 249 249 249 249 249 248 248 247 246 246 246 246 247 249 250 250 250 250
260 259 259 258 258 258 258 256 255 254 254 253 252 250 249 249 249 249 249 250 250 249 249 248 248 248 248 248 248 250 249 249 248 247 246 247 249 250 251 252 252 252 253
260 260 259 258 258 258 257 256 254 254 254 253 252 251 250 249 249 249 249 250 250 249 249 248 247 248 248 248 248 249 250 250 248 248 247 247 249 251 252 253 254 254 254
260 259 259 259 258 257 256 255 254 254 254 253 252 251 250 250 249 250 250 250 250 249 249 248 248 248 249 249 249 249 250 250 249 249 249 248 249 251 253 254 255 256 256
260 259 258 258 256 255 255 254 253 253 253 252 251 251 250 250 250 250 250 250 250 250 249 249 250 249 249 249 250 250 250 250 250 249 250 250 250 251 253 254 255 256 257
260 259 258 257 254 254 253 252 252 251 251 251 250 251 252 251 251 251 250 250 251 251 251 250 250 250 249 249 249 250 251 251 251 251 250 251 251 252 253 254 255 257 257
260 259 258 257 255 254 253 251 251 251 251 251 251 252 253 252 251 250 250 250 250 251 250 250 250 250 249 249 250 250 251 252 253 252 252 252 252 253 254 255 255 257 258
258 257 256 256 255 254 253 251 250 251 253 252 252 252 252 251 250 249 249 249 250 251 250 250 251 251 251 250 250 251 252 253 253 253 253 252 253 254 255 256 257 257 258
258 257 256 256 254 254 252 251 251 252 253 253 252 253 252 251 252 251 250 250 250 250 250 250 251 251 251 250 250 252 253 254 255 254 253 254 255 256 256 257 258 258 260
259 258 256 255 254 253 251 250 251 252 252 252 252 253 253 253 252 250 249 250 250 249 249 251 251 251 250 251 252 253 254 256 255 255 256 255 256 257 258 257 258 259 261
259 258 256 255 254 252 250 250 250 250 250 251 252 253 253 252 251 250 250 250 251 250 250 251 251 251 251 252 253 254 255 255 254 255 257 257 257 258 259 260 260 260 261
259 258 257 255 253 251 251 250 250 250 251 251 251 252 253 252 251 250 250 250 250 250 250 251 252 252 251 252 252 253 255 255 255 256 257 258 259 259 260 261 262 262 261
260 258 257 255 253 251 250 250 250 250 250 250 250 251 251 251 251 250 250 251 251 250 250 251 252 253 252 252 253 254 255 257 259 258 259 260 260 260 261 262 262 262 261
259 258 257 255 252 250 249 249 249 249 249 249 249 249 250 250 250 251 251 252 251 251 251 252 253 254 254 254 254 254 255 257 259 259 260 261 262 262 262 263 263 264 263
259 258 255 253 252 250 250 249 249 249 249 249 249 249 249 249 250 251 251 251 251 251 251 252 253 255 255 255 255 256 257 258 258 259 260 261 262 263 264 264 264 265 264
258 257 255 253 251 250 249 249 249 249 249 249 249 249 250 250 250 250 251 252 252 252 252 253 253 254 255 256 257 257 257 258 259 259 259 261 262 263 264 264 264 264 264
257 256 254 253 251 250 249 248 248 249 249 249 249 249 250 250 250 251 251 252 252 252 252 253 254 254 255 257 257 257 257 259 259 259 260 261 262 262 263 264 265 265 266
256 255 254 253 252 250 249 249 248 248 248 248 249 249 249 250 251 251 251 252 252 252 252 253 254 254 255 257 257 257 257 259 259 260 260 261 263 264 264 265 265 265 266
257 256 254 253 252 251 250 249 249 249 248 248 248 249 249 249 250 251 251 251 252 252 252 253 254 255 255 256 257 257 258 258 259 260 260 261 263 264 265 266 266 266 266
Height
5844 5844 5844 5844 5844 5845 5845 5845 5845 5846 5846 5847 5847 5847 5848 5848 5849 5849 5850 5850 5851 5851 5852 5852 5853 5853 5853 5854 5854 5855 5855 5855 5856 5856 5856 5856 5857 5857 5857 5858 5858 5858 5858
5841 5841 5841 5842 5842 5842 5842 5843 5843 5843 5844 5844 5845 5845 5845 5846 5847 5847 5848 5848 5849 5849 5850 5851 5851 5852 5852 5852 5853 5853 5854 5854 5855 5855 5855 5856 5856 5856 5857 5857 5857 5857 5858
5838 5838 5838 5839 5839 5839 5840 5840 5840 5841 5841 5842 5842 5842 5843 5843 5844 5845 5846 5846 5847 5847 5848 5848 5849 5850 5850 5851 5851 5852 5852 5853 5853 5854 5854 5854 5855 5855 5856 5856 5856 5857 5857
5835 5835 5835 5836 5836 5836 5836 5837 5837 5838 5838 5839 5839 5840 5840 5841 5842 5842 5843 5844 5844 5845 5846 5846 5847 5848 5848 5849 5849 5850 5850 5851 5851 5852 5853 5853 5854 5854 5854 5855 5855 5856 5856
5831 5832 5832 5832 5833 5833 5833 5834 5834 5835 5835 5836 5836 5837 5837 5838 5839 5839 5840 5841 5842 5842 5843 5844 5844 5845 5846 5847 5847 5848 5848 5849 5850 5850 5851 5852 5852 5853 5853 5853 5854 5854 5855
5828 5828 5828 5829 5829 5829 5830 5830 5831 5831 5832 5832 5833 5834 5834 5835 5835 5836 5837 5838 5839 5839 5840 5841 5842 5842 5843 5844 5845 5845 5846 5847 5848 5848 5849 5850 5850 5851 5851 5852 5852 5853 5853
5823 5823 5824 5824 5825 5825 5826 5826 5827 5827 5828 5829 5829 5830 5831 5831 5832 5833 5834 5834 5835 5836 5837 5838 5839 5839 5840 5841 5842 5843 5843 5844 5845 5846 5847 5847 5848 5848 5849 5849 5850 5851 5851
5819 5819 5819 5820 5820 5820 5821 5822 5822 5823 5824 5825 5825 5826 5827 5827 5828 5829 5830 5831 5832 5833 5833 5834 5835 5836 5837 5838 5839 5840 5840 5841 5842 5843 5844 5844 5845 5846 5846 5847 5847 5848 5848
5814 5814 5814 5815 5815 5816 5816 5817 5818 5818 5819 5820 5821 5822 5823 5823 5824 5825 5826 5827 5828 5829 5830 5831 5832 5833 5834 5835 5835 5836 5837 5838 5839 5839 5840 5841 5842 5843 5843 5844 5845 5845 5846
5808 5809 5809 5809 5810 5810 5811 5812 5813 5814 5814 5815 5816 5817 5818 5819 5820 5821 5821 5822 5823 5824 5825 5826 5827 5829 5830 5831 5832 5832 5833 5834 5835 5836 5837 5838 5839 5839 5840 5841 5841 5842 5842
5803 5803 5803 5803 5804 5805 5806 5807 5808 5808 5809 5810 5811 5812 5813 5814 5815 5816 5817 5818 5819 5820 5821 5822 5823 5824 5825 5827 5828 5828 5830 5830 5831 5832 5833 5834 5835 5836 5836 5837 5838 5838 5839
5797 5797 5797 5797 5798 5799 5800 5801 5802 5803 5804 5805 5806 5807 5808 5809 5810 5811 5812 5813 5814 5815 5816 5817 5818 5820 5821 5822 5823 5824 5825 5826 5827 5828 5829 5830 5831 5831 5832 5833 5834 5834 5835
5791 5791 5791 5791 5792 5793 5794 5795 5796 5797 5798 5799 5800 5802 5803 5804 5805 5806 5807 5808 5809 5810 5811 5812 5814 5815 5816 5817 5818 5820 5821 5821 5822 5823 5824 5825 5826 5827 5827 5828 5829 5830 5830
5784 5784 5785 5785 5786 5787 5788 5789 5790 5791 5792 5793 5794 5795 5796 5798 5799 5800 5801 5802 5803 5805 5806 5807 5808 5810 5811 5812 5813 5814 5816 5816 5817 5818 5819 5820 5821 5822 5823 5823 5824 5825 5825
5777 5777 5778 5778 5779 5780 5781 5783 5784 5785 5786 5787 5788 5789 5790 5791 5792 5794 5795 5796 5798 5799 5800 5801 5803 5804 5805 5807 5808 5809 5810 5811 5812 5813 5814 5815 5816 5816 5817 5818 5819 5819 5820
5769 5770 5770 5771 5772 5773 5774 5776 5777 5778 5780 5781 5782 5783 5783 5784 5786 5787 5789 5790 5791 5793 5794 5795 5797 5798 5799 5801 5802 5803 5804 5805 5806 5807 5808 5809 5810 5811 5811 5812 5813 5814 5814
5761 5761 5762 5763 5764 5765 5767 5769 5770 5771 5773 5774 5775 5776 5777 5778 5779 5780 5782 5783 5785 5786 5788 5789 5790 5792 5793 5794 5796 5797 5798 5799 5800 5801 5802 5803 5804 5804 5805 5806 5807 5807 5808
5753 5753 5754 5755 5756 5757 5759 5760 5762 5764 5765 5766 5767 5768 5769 5770 5772 5773 5775 5776 5778 5779 5781 5783 5784 5785 5786 5788 5789 5791 5792 5793 5794 5794 5795 5796 5797 5798 5799 5799 5800 5800 5801
5743 5744 5745 5746 5747 5748 5750 5752 5754 5755 5757 5758 5760 5761 5762 5763 5764 5766 5768 5769 5771 5772 5774 5776 5777 5779 5780 5781 5782 5783 5785 5786 5787 5788 5788 5789 5790 5791 5791 5792 5793 5793 5793
5733 5734 5735 5736 5738 5739 5741 5743 5744 5746 5748 5750 5751 5753 5754 5755 5757 5758 5760 5762 5763 5765 5767 5768 5770 5771 5773 5774 5775 5776 5778 5779 5780 5780 5781 5782 5783 5783 5784 5784 5785 5786 5786
5722 5723 5725 5726 5727 5729 5731 5733 5735 5737 5739 5740 5742 5743 5745 5747 5748 5750 5752 5754 5756 5757 5759 5761 5762 5763 5765 5766 5768 5769 5770 5771 5772 5773 5774 5775 5775 5776 5776 5777 5777 5778 5778
5712 5712 5714 5715 5716 5718 5720 5722 5724 5726 5728 5730 5732 5734 5736 5738 5739 5741 5743 5745 5747 5749 5751 5753 5754 5755 5757 5759 5760 5761 5762 5764 5765 5765 5766 5767 5767 5768 5768 5769 5769 5769 5770
5701 5701 5702 5704 5705 5707 5709 5711 5713 5716 5718 5720 5723 5724 5726 5728 5730 5732 5734 5736 5738 5740 5742 5744 5746 5747 5748 5750 5751 5753 5754 5756 5756 5758 5758 5759 5759 5760 5760 5760 5761 5761 5761
5689 5689 5691 5692 5694 5695 5697 5699 5702 5704 5707 5710 5712 5714 5716 5718 5720 5723 5725 5727 5729 5731 5733 5735 5737 5739 5740 5741 5743 5744 5746 5747 5748 5749 5750 5750 5751 5751 5751 5752 5752 5752 5752
5676 5678 5679 5680 5682 5684 5686 5688 5690 5692 5695 5698 5700 5703 5705 5708 5710 5713 5715 5717 5719 5721 5723 5726 5728 5730 5731 5732 5734 5735 5736 5738 5739 5740 5741 5742 5742 5742 5742 5742 5742 5742 5742
5664 5665 5667 5668 5670 5671 5673 5675 5678 5680 5683 5686 5688 5691 5694 5697 5699 5702 5704 5707 5709 5711 5713 5716 5718 5720 5721 5723 5725 5726 5727 5729 5730 5731 5732 5732 5733 5733 5733 5733 5732 5732 5732